Location: Aubrey
(33.1990°N, 85.1361°W)
Time: 11:24:03
(UTC+00:00)

Nauka - Visible Passes

Search period start: 17 September 2021 00:00
Search period end: 27 September 2021 00:00
Orbit: 419 x 423 km, 51.6° (Epoch: 16 September)

Date Brightness Start Highest point End Pass type
(mag) Time Alt. Az. Time Alt. Az. Time Alt. Az.
17 Sep ? 00:58:31 10° WSW 01:01:44 42° NW 01:04:35 12° NNE visible
18 Sep ? 00:11:29 10° SW 00:14:50 81° NW 00:18:12 10° NE visible
18 Sep ? 01:51:17 10° NW 01:52:09 11° NNW 01:53:00 10° NNW visible
19 Sep ? 01:02:54 10° WNW 01:05:02 16° NNW 01:07:11 10° N visible
20 Sep ? 00:15:12 10° W 00:17:59 24° NW 00:20:48 10° NNE visible
22 Sep ? 00:20:53 10° NW 00:21:26 10° NNW 00:21:57 10° NNW visible
